KD7ECD Weather Reports


time (UTC)temp
F
wind
direction
speed
knots
gust
knots
rain 1hr
in
rain 24hr
in
rain mn
in
humidity
%
barometer
mb
20260506144525 54 183 0.0 5.2 0.00 0.00 0.00 89 1023.5
20260506143520 54 179 0.0 0.0 0.00 0.00 0.00 89 1023.2
20260506142515 54 179 0.0 0.0 0.00 0.00 0.00 89 1023.3
20260506141511 54 184 0.0 0.0 0.00 0.00 0.00 90 1022.9
20260506140506 54 188 0.0 0.0 0.00 0.00 0.00 91 1022.7
20260506135506 53 182 0.0 0.0 0.00 0.00 0.00 91 1022.8
20260506134503 53 195 0.0 0.0 0.00 0.00 0.00 92 1022.7
20260506133503 53 195 0.0 0.0 0.00 0.00 0.00 92 1022.6
20260506132502 53 195 0.0 0.0 0.00 0.00 0.00 92 1022.5
20260506131457 53 201 0.0 0.0 0.00 0.00 0.00 93 1022.4
20260506130456 53 201 0.0 0.0 0.00 0.00 0.00 93 1022.5
20260506125452 53 200 0.0 0.0 0.00 0.00 0.00 93 1022.2
20260506124447 53 201 0.0 0.0 0.00 0.00 0.00 94 1022.1
20260506123442 53 190 0.0 0.0 0.00 0.00 0.00 94 1022.1
20260506122442 52 190 0.0 0.0 0.00 0.00 0.00 94 1022.1
20260506121437 52 190 0.0 0.0 0.00 0.00 0.00 94 1022.2
20260506120438 52 191 0.0 0.0 0.00 0.00 0.00 95 1022.1
20260506115433 52 199 0.0 0.0 0.00 0.00 0.00 95 1022.0
20260506114428 52 212 0.0 0.0 0.00 0.00 0.00 96 1022.0
20260506113424 52 201 0.0 0.0 0.00 0.00 0.00 96 1021.9
20260506112424 52 177 0.0 0.0 0.00 0.00 0.00 96 1022.1
20260506111419 52 176 0.0 0.0 0.00 0.00 0.00 96 1021.5
20260506110414 52 157 0.0 0.0 0.00 0.00 0.00 96 1021.7
20260506105412 52 140 0.0 0.0 0.00 0.00 0.00 96 1021.7
20260506104408 51 154 0.0 0.0 0.00 0.00 0.00 96 1021.6
20260506103402 51 146 0.0 0.0 0.00 0.00 0.00 96 1021.8
20260506102357 51 141 0.0 0.0 0.00 0.00 0.00 96 1021.3
20260506101356 50 155 0.0 0.0 0.00 0.00 0.00 96 1021.6
20260506100352 50 166 0.0 0.0 0.00 0.00 0.00 96 1021.3
20260506095348 51 166 0.0 0.0 0.00 0.00 0.00 96 1021.4
20260506094343 51 141 0.0 0.0 0.00 0.00 0.00 96 1021.2
20260506093343 51 164 0.0 0.0 0.00 0.00 0.00 96 1021.3
20260506092339 51 180 0.0 0.0 0.00 0.00 0.00 96 1021.5
20260506091339 51 174 0.0 0.0 0.00 0.00 0.00 96 1021.3
20260506090339 51 156 0.0 0.0 0.00 0.00 0.00 96 1021.5
20260506085338 51 132 0.0 0.0 0.00 0.00 0.00 96 1021.6
20260506084338 51 135 0.0 0.0 0.00 0.00 0.00 95 1021.7
20260506083338 51 184 0.0 0.0 0.00 0.00 0.00 95 1021.4
20260506082337 52 184 0.0 0.0 0.00 0.00 0.00 94 1021.6
20260506081337 52 184 0.0 0.0 0.00 0.00 0.00 94 1021.7
20260506080337 53 184 0.0 0.0 0.00 0.00 0.00 94 1021.7
20260506073327 53 184 0.0 0.0 0.00 0.00 0.00 94 1021.4
20260506072327 53 184 0.0 0.0 0.00 0.00 0.00 93 1021.4
20260506071323 52 183 0.0 0.0 0.00 0.00 0.00 93 1021.1
20260506070322 52 194 0.0 0.0 0.00 0.00 0.00 93 1021.1
20260506062311 54 229 1.7 1.7 0.00 0.01 0.01 91 1020.6
20260506061310 54 245 2.6 2.6 0.00 0.01 0.01 90 1020.8
20260506060306 54 234 3.5 4.3 0.00 0.01 0.01 91 1020.7
20260506051255 55 220 1.7 2.6 0.00 0.01 0.01 88 1020.3
20260506050250 55 218 3.5 4.3 0.00 0.01 0.01 87 1020.0
20260506044250 56 229 3.5 4.3 0.00 0.01 0.01 86 1020.0
20260506043244 56 245 2.6 2.6 0.00 0.01 0.01 86 1020.2
20260506042241 56 229 2.6 2.6 0.00 0.01 0.01 86 1019.9
20260506041241 56 237 2.6 4.3 0.00 0.01 0.01 85 1019.6
20260506040236 56 243 2.6 4.3 0.00 0.01 0.01 84 1019.6
20260506035235 57 218 2.6 2.6 0.00 0.01 0.01 84 1019.5
20260506034235 57 203 5.2 6.1 0.00 0.01 0.01 84 1019.4
20260506033230 57 213 3.5 4.3 0.00 0.01 0.01 83 1019.3
20260506032229 57 197 5.2 7.0 0.00 0.01 0.01 83 1019.2
20260506031229 57 233 4.3 5.2 0.00 0.01 0.01 83 1019.3
20260506030224 57 211 4.3 6.1 0.00 0.01 0.01 82 1018.8
20260506025223 57 210 6.1 8.7 0.00 0.01 0.01 82 1018.7
20260506024223 57 220 4.3 7.0 0.00 0.01 0.01 81 1018.8
20260506023222 57 241 7.8 8.7 0.00 0.01 0.01 81 1018.8
20260506022217 58 233 6.1 7.8 0.00 0.01 0.01 81 1018.3
20260506021217 58 190 4.3 7.0 0.00 0.01 0.01 80 1018.3
20260506020212 58 210 4.3 5.2 0.00 0.01 0.01 80 1018.2
20260506015213 59 190 3.5 4.3 0.00 0.01 0.01 80 1018.2
20260506014211 59 194 4.3 5.2 0.00 0.01 0.01 79 1018.1
20260506013206 59 218 6.1 7.8 0.00 0.01 0.01 79 1018.3
20260506012205 59 209 6.1 8.7 0.00 0.01 0.01 80 1018.3
20260506011204 59 226 7.0 8.7 0.00 0.01 0.01 79 1018.2
20260506010159 60 196 4.3 6.1 0.00 0.01 0.01 78 1018.2
20260506005159 60 219 5.2 7.8 0.00 0.01 0.01 77 1017.9
20260506004159 60 210 4.3 6.1 0.00 0.01 0.01 76 1018.2
20260506003156 60 223 6.1 8.7 0.00 0.01 0.01 76 1018.0
20260506002154 60 213 4.3 7.8 0.00 0.01 0.01 77 1018.1
20260506001154 60 225 6.1 7.8 0.00 0.01 0.01 77 1018.0
20260506000148 60 213 7.0 7.8 0.00 0.01 0.01 77 1017.7
20260505235149 60 188 7.0 8.7 0.00 0.01 0.01 77 1017.7
20260505234148 60 222 5.2 6.1 0.00 0.01 0.01 78 1017.8
20260505233148 59 207 4.3 5.2 0.00 0.01 0.01 78 1017.9
20260505232143 59 214 4.3 6.1 0.00 0.01 0.01 79 1017.9
20260505231139 60 233 4.3 7.8 0.00 0.01 0.01 78 1018.2
20260505230138 59 253 5.2 7.0 0.00 0.01 0.01 79 1018.3
20260505225137 60 290 4.3 6.1 0.00 0.01 0.01 79 1017.9
20260505224137 59 260 6.1 8.7 0.00 0.01 0.01 79 1017.9
20260505223136 59 226 5.2 7.0 0.00 0.01 0.01 79 1018.2
20260505222134 59 245 5.2 6.1 0.00 0.01 0.01 81 1018.1
20260505221134 58 230 7.0 7.8 0.00 0.01 0.01 81 1018.3
20260505220134 58 242 6.1 7.8 0.00 0.01 0.01 81 1018.1
20260505215130 58 251 7.0 7.8 0.00 0.01 0.01 82 1018.2
20260505214130 58 236 7.0 7.8 0.00 0.01 0.01 81 1018.2
20260505213130 58 237 6.1 8.7 0.00 0.01 0.01 82 1018.3
20260505212130 58 260 7.8 9.6 0.00 0.01 0.01 82 1018.3
20260505211130 58 234 6.1 7.8 0.00 0.01 0.01 83 1018.5
20260505210129 57 198 5.2 7.0 0.00 0.01 0.01 83 1018.6
20260505205125 57 233 6.1 7.8 0.00 0.01 0.01 85 1018.5
20260505204125 57 215 6.1 6.1 0.00 0.01 0.01 86 1018.6
20260505203124 56 221 5.2 7.0 0.00 0.01 0.01 87 1018.7
20260505202122 56 191 5.2 7.8 0.00 0.01 0.01 88 1018.6
20260505201123 55 209 2.6 8.7 0.00 0.01 0.01 90 1018.7
20260505200117 55 197 5.2 7.8 0.00 0.01 0.01 91 1018.5
20260505195117 55 192 4.3 7.0 0.00 0.01 0.01 92 1018.8
20260505194115 54 192 5.2 7.0 0.00 0.01 0.01 94 1018.8
20260505193115 54 183 4.3 5.2 0.00 0.01 0.01 95 1019.0
20260505192111 54 193 7.8 9.6 0.00 0.01 0.01 94 1018.7
20260505191107 55 203 5.2 8.7 0.00 0.01 0.01 94 1018.9
20260505190103 55 208 7.0 7.8 0.00 0.01 0.01 93 1018.7
20260505185103 55 199 7.8 7.8 0.00 0.01 0.01 93 1018.6
20260505184102 54 203 6.1 8.7 0.00 0.01 0.01 95 1018.6
20260505183102 54 208 6.1 8.7 0.00 0.01 0.01 95 1018.6
20260505182101 54 211 7.0 7.8 0.00 0.01 0.01 97 1018.5
20260505181101 53 206 5.2 7.8 0.00 0.01 0.01 97 1018.6
20260505180100 53 199 7.0 8.7 0.00 0.01 0.01 97 1018.6
20260505175058 53 199 7.0 7.8 0.00 0.01 0.01 97 1018.5
20260505174056 53 202 4.3 7.0 0.00 0.01 0.01 97 1018.3
20260505173056 53 190 6.1 7.0 0.00 0.01 0.01 96 1018.3
20260505172050 53 212 2.6 4.3 0.00 0.01 0.01 96 1018.1
20260505171048 53 220 5.2 5.2 0.00 0.01 0.01 95 1017.9
20260505170047 53 222 4.3 6.1 0.00 0.01 0.01 94 1018.1
20260505165044 52 196 5.2 6.1 0.00 0.01 0.01 93 1017.9
20260505164044 53 177 4.3 8.7 0.00 0.01 0.01 92 1017.8
20260505163045 53 199 4.3 5.2 0.00 0.01 0.01 91 1018.0
20260505162041 53 195 4.3 7.0 0.00 0.01 0.01 90 1017.9
20260505161041 53 199 3.5 6.1 0.00 0.01 0.01 89 1017.6
20260505153032 53 197 4.3 5.2 0.00 0.01 0.01 87 1017.7
20260505152030 53 206 2.6 5.2 0.00 0.01 0.01 88 1017.4
20260505151028 53 213 4.3 6.1 0.00 0.01 0.01 88 1017.5